Location: Recife
(8.0585°S, 34.8848°W)
Time: 22:08:33
(UTC-03:00)

Vanguard 3 - Pass Details

Date: 21 April 2026
Orbit: 507 x 3205 km, 33.4° (Epoch: 12 May)

Event Time Altitude Azimuth Distance (km) Brightness Sun altitude
Rises 11:05:54 0° 238° (WSW) 6,233 11.5 69.7°
Reaches altitude 10° 11:10:43 10° 227° (SW) 5,553 11.4 69.9°
Maximum altitude 11:25:36 30° 171° (S) 4,626 11.2 69.9°
Drops below altitude 10° 11:41:19 10° 116° (ESE) 5,884 11.5 69.1°
Sets 11:46:36 0° 106° (ESE) 6,643 11.7 68.7°
